CZ-6A DEB

Satellite information

Favourite Embed

Satellite Type and Status

DEBRISIN ORBIT

Key statistics

Satellite CZ-6A DEB at a glance.

Uptime

1129

Days in orbit

Revolutions

≈ 14.7

Per day

Orbit

SSO

Sun Synchronous Orbit

Inclination

98.6

Latest

Satellite identification and parameters

Extended collection of information and parameters for CZ-6A DEB.

Object identification

Identified? True

Debris? True

Object name: CZ-6A DEB

International designator: 2022-151WP

Object number (NORAD): 55222

Object ID (CCSDS): 55222

Country: PEOPLES REPUBLIC OF CHINA (PRC)

Current information (Y/N): Y

RCS size: SMALL

Orbital parameters

Period: 98.19 minutes

Inclination: 98.64 deg

SMA: 7050.25 km

Apoapsis: 725.494 km

Periapsis: 618.736 km

RAAN: 35.0212 deg

Eccentricy: 0.00757121

Argument of periapsis: 154.5983 deg

Mean anomaly: 205.8972 deg

Mean motion: 14.6654697 rev/day

Mean motion (dot): 0.00023899 rev/day2

B* drag term: 0.0041249019 1/REarth

Two-line elements (TLE)

Creation date: Dec. 11, 2025, 10:54 a.m.

Reference frame: TEME

Reference center: EARTH

Epoch: Dec. 11, 2025, 2:48 a.m. UTC

TLE line 0: 0 CZ-6A DEB

TLE line 1: 1 55222U 22151WP 25345.11708955 .00023899 00000-0 41249-2 0 9995

TLE line 2: 2 55222 98.6400 35.0212 0075712 154.5983 205.8972 14.66546970157212

Live tracking on map

Real-time ground track for satellite CZ-6A DEB.

In-orbit conjunctions

A list of the most updated potential collisions computed for object CZ-6A DEB.

Target Orbit TCA Probability of collision Miss distance Type
OPAL SSO 2025-08-13 12:22:18 0.0001002531 210.0 (m) PAYLOAD
COSMOS 2251 DEB LEO 2025-08-04 06:04:15 0.0001758689 107.0 (m) DEBRIS
TITAN 3C TRANSTAGE DEB LEO 2025-07-19 20:58:54 0.0001790652 262.0 (m) DEBRIS

Associated space launch

Chinese satellite reported for atmospheric/ocean/environmental/spatial parameter research purposes, details TBD.

CZ-6A DEB was lifted into orbit during the mission ‘Long March 6A | Yunhai 3’, on board a Long March 6A space rocket.

The launch took place on Nov. 11, 2022, 10:52 p.m. from Launch Complex 9A.

For more information about the launch, click the button.

Launch to space Long March 6A | Yunhai 3
Long March 6A | Yunhai 3

Agency: N/A

Status: Launch Successful

Launch date: Nov. 11, 2022, 10:52 p.m. UTC

Rocket: Long March 6A

Launch pad: Launch Complex 9A

Location: Taiyuan Satellite Launch Center, People's Republic of China

...

Latest news about this satellite

There are no fresh news available about this satellite. Check back as we update our databases every day.


Newsletter sign-up

Weekly statistics, charts and insights to help you stay on top of the space industry.